Location: Bishop�s Knoyle
(51.0728°N, 2.1714°W)
Time: 14:33:49
(UTC+00:00)

NOSS 3-4 (C) - Pass Details

Date: 17 January 2021
Orbit: 878 x 1335 km, 63.4° (Epoch: 16 February)

Event Time Altitude Azimuth Distance (km) Brightness Sun altitude
Rises 22:00:44 0° 305° (NW) 3,657 7.2 -49.3°
Reaches altitude 10° 22:03:29 10° 315° (NW) 2,768 6.3 -49.6°
Enters shadow 22:04:07 13° 318° (NW) 2,581 6.1 -49.7°
